星链-35012 (STARLINK-35012)

导读 | 豆包AI

STARLINK-35012是美国于2025年8月30日发射的星链系列卫星,归属SpaceX星链互联网星座项目。作为低轨卫星星座的组成部分,它承担着向全球提供高速低延迟卫星互联网服务的任务,助力星座实现全球覆盖,服务偏远地区通信、航空海事联网等多元场景,延续了星链星座的组网扩张节奏。

基本信息
目录编号:
65384
目录名称:
STARLINK-35012
国际标识:
2025-191F
轨道中心:
EARTH
卫星名称:
星链-35012
卫星全名:
星链-35012 (STARLINK-35012)
卫星状态:
在轨 (已飞行217 天)
发射日期:
2025-08-30 UTC
国别 :
美国 (US)
星等 :
--
轨道信息
数据来源 国际轨道数据 AOE轨道数据
星历时间 2026-04-03T23:40:27+0800
19小时前
查看轨道信息
2026-04-02T09:00:00+0800
2天前
查看轨道信息
半长轴 6927.647km 6927.668km
偏心率 0.0002704 0.0002422
轨道倾角 97.603° 97.602°
近地点辐角 81.654° 76.708°
升交点赤经 326.097° 324.508°
平近点角 278.499° 194.550°
近地点 547.636km 547.853km
远地点 551.384km 551.209km
周期 95.640分钟 95.640分钟
每日圈数 15.056506 15.056438
详细信息
固有亮度:
5
最大亮度:
2.5
卫星平台:
Starlink V1.0
覆盖范围:
全球
运营商:
太空探索技术公司
运营商所在国:
美国
制造商(研发单位):
太空探索技术公司
制造商所在国:
美国
使用方式:
暂无
卫星简介
Starlink 计划是 SpaceX 推出的全球卫星互联网项目,通过发射低轨道卫星,为全球尤其是偏远地区提供高速、低延迟的互联网服务。自 2019 年起,Starlink 已部署数千颗卫星,旨在缩小全球数字鸿沟,推动互联网普及。该项目还为军事、航空等行业提供通信支持,带来广泛经济效益。
2D轨道图
3D轨道图
轨道高度分析图
轨道倾角分析图
轨道综合分析图
查看轨道综合分析图